Probability
0 1 2 3 1 0 0 0 0 0 0 0 0 0 0 1 2 2 3 2 2 3 3 3 3 3 3 3 3 3 3 3 3 2 2 3 3 3 2 1 0 0 0
0 1 2 3 2 1 0 0 0 0 0 0 0 0 0 0 1 2 2 1 1 2 3 3 3 3 3 3 3 3 3 3 3 2 1 2 3 3 2 1 0 0 0
0 1 2 3 2 1 0 0 0 0 0 0 0 0 0 0 0 2 2 1 1 2 3 3 3 3 3 3 3 3 3 3 3 2 1 1 1 2 3 2 0 0 0
0 0 1 3 2 1 0 0 0 0 0 0 0 0 0 0 0 1 2 2 2 2 3 3 3 3 3 3 3 3 3 3 3 2 1 0 0 1 3 3 1 0 0
0 0 1 2 3 1 0 0 0 0 0 0 0 0 0 0 0 0 1 1 1 2 3 3 3 3 2 1 2 3 3 3 2 1 0 0 0 1 3 3 2 1 0
0 0 1 2 3 2 1 0 0 0 0 0 0 0 0 0 1 1 0 1 2 3 3 3 3 3 2 1 2 2 2 2 1 0 0 0 0 1 3 3 3 1 0
0 0 1 2 2 2 1 0 0 0 0 0 0 0 0 0 1 1 0 1 2 3 3 3 3 3 3 3 2 2 1 1 0 0 0 0 1 3 5 5 3 2 1
0 0 0 1 1 1 1 0 0 0 0 0 0 0 0 0 1 1 0 1 2 3 3 3 3 3 3 3 3 2 1 0 0 0 0 0 1 3 5 6 5 3 1
0 0 0 0 0 0 0 1 1 0 0 0 0 0 0 0 0 0 1 1 2 3 3 3 3 3 3 3 3 3 2 1 1 0 0 0 1 3 5 8 9 6 3
0 0 0 0 0 0 0 1 1 0 0 0 0 1 1 0 0 1 2 2 3 3 3 3 3 3 3 3 3 3 3 2 1 0 0 0 1 3 8 13 15 11 7
0 0 0 0 0 0 0 1 1 0 0 0 1 3 3 1 0 1 3 3 3 4 4 5 4 3 3 3 3 3 3 1 0 0 0 1 2 7 14 19 17 13 11
0 0 0 0 0 0 0 0 0 0 0 0 1 2 2 0 1 2 3 3 3 4 6 6 6 4 3 3 3 3 2 1 0 0 0 1 4 11 20 19 13 10 8
0 0 0 0 0 0 0 0 0 0 0 0 0 0 0 0 1 2 2 3 4 5 5 6 6 5 3 3 2 1 1 0 0 0 1 3 6 14 19 16 9 6 5
0 0 0 0 0 0 0 0 0 0 0 0 0 0 0 0 0 1 1 2 5 5 4 4 5 5 4 3 2 0 0 0 0 1 3 6 11 17 18 15 10 7 4
0 0 0 0 0 0 0 0 0 0 0 0 0 0 1 0 0 0 0 2 3 4 3 3 3 3 3 2 2 1 0 0 0 2 4 8 15 21 22 19 15 9 5
0 0 0 0 0 0 0 0 0 0 0 0 0 0 0 0 0 0 0 1 2 1 1 1 1 1 1 1 2 2 1 1 1 2 4 7 14 24 30 30 25 15 7
8 6 4 3 2 2 2 2 1 0 0 0 0 0 1 1 0 0 0 1 1 1 1 0 0 0 0 1 2 3 3 2 2 3 3 5 10 22 35 45 42 26 14
28 25 23 22 17 12 10 9 5 2 1 1 1 2 3 5 3 1 0 1 1 2 2 1 0 0 0 0 1 3 3 3 3 3 4 4 7 14 27 45 54 40 24
44 48 48 45 41 34 28 20 11 6 6 5 5 6 8 13 13 7 4 3 3 4 4 2 1 0 0 0 1 2 3 2 2 3 3 4 4 5 11 27 47 47 35
53 65 68 61 59 61 54 35 19 13 15 19 21 19 18 24 25 18 12 8 5 6 6 4 2 2 1 0 1 1 1 1 1 1 2 2 2 1 2 9 25 37 37
68 79 84 78 74 76 70 51 35 33 39 48 51 42 31 28 28 24 17 10 4 5 6 4 2 3 2 0 0 0 0 0 0 0 1 1 1 0 0 1 7 15 19
65 79 92 91 85 82 73 60 56 60 63 65 60 46 28 20 18 17 14 7 3 3 3 2 1 1 1 0 0 0 0 0 0 0 0 0 0 0 0 0 0 1 3
47 71 92 94 90 86 78 68 66 65 57 45 34 21 11 7 6 8 7 5 2 1 1 0 0 0 1 0 0 0 0 0 0 0 0 0 0 0 0 0 0 0 0
50 74 92 90 84 77 68 57 50 41 29 17 8 3 1 0 0 2 5 4 2 1 1 0 0 0 0 0 0 0 0 0 0 0 0 0 0 0 0 0 0 0 0
51 62 69 62 53 43 33 25 18 13 8 4 1 0 0 0 0 1 3 2 1 0 0 0 0 0 0 0 0 0 0 0 0 0 0 0 0 0 0 0 0 0 0
35 38 35 28 21 14 9 4 1 0 0 0 0 0 0 0 0 1 1 1 0 0 0 0 0 0 0 0 0 0 0 0 0 0 0 0 0 0 0 0 0 0 0
Wind_Speed
9 9 17 18 18 16 16 14 13 13 13 14 15 15 15 15 15 14 14 13 12 11 10 9 8 9 9 9 10 10 10 10 10 11 11 11 9 8 7 10 10 7 10
14 11 17 18 19 18 17 15 13 13 12 12 13 13 13 13 12 12 12 11 10 10 10 8 7 7 8 8 8 8 8 8 8 9 9 9 8 8 8 10 10 7 9
13 12 14 17 18 17 17 16 15 14 13 12 11 11 11 11 11 11 11 10 9 8 8 7 7 6 6 7 7 7 6 5 5 6 6 3 3 6 8 11 10 9 8
12 9 11 18 18 17 16 15 15 14 13 12 11 11 10 10 10 10 9 9 8 7 7 6 6 5 5 4 7 7 5 4 4 4 2 2 3 5 7 10 10 9 8
10 8 12 18 18 17 15 14 13 13 13 12 12 11 10 10 9 9 9 8 7 7 6 7 7 6 4 3 3 5 5 5 5 4 3 4 3 5 8 9 9 9 9
9 8 12 17 17 16 15 15 14 14 14 13 13 12 11 10 10 9 8 7 6 7 7 6 6 6 6 4 3 3 4 5 4 3 4 4 4 9 12 12 11 11 11
9 8 11 16 16 16 15 15 15 15 15 14 13 11 11 10 9 10 9 8 7 7 7 6 6 5 6 6 5 5 6 6 5 3 3 4 6 11 13 13 12 12 12
11 9 9 15 16 15 14 15 16 16 15 14 14 13 12 12 11 11 11 10 10 9 9 7 6 5 6 7 7 7 7 8 6 3 4 4 7 12 15 13 12 11 12
12 9 8 9 13 15 14 14 15 15 15 13 13 13 14 13 11 10 10 10 10 9 9 8 7 7 7 7 8 8 8 10 5 3 4 3 6 13 14 13 13 13 13
10 8 6 5 6 7 8 13 15 15 15 15 15 15 14 13 11 10 8 9 11 11 11 10 9 9 8 8 9 10 10 9 6 5 4 5 10 13 15 13 14 15 15
10 8 6 5 5 4 5 9 12 14 14 14 13 14 11 5 5 6 8 11 13 13 13 12 10 10 10 10 11 12 10 5 5 5 4 9 12 13 14 14 14 16 16
13 11 8 7 6 6 6 5 4 5 6 6 6 6 5 4 5 7 9 13 14 14 14 13 12 11 9 4 6 10 6 6 6 6 6 12 14 14 14 14 14 14 14
13 12 10 9 7 5 4 3 2 2 3 4 6 6 4 4 4 5 4 6 7 8 6 7 7 6 5 4 4 4 5 5 5 5 8 13 13 13 13 14 14 14 14
10 10 10 9 8 6 4 4 4 4 4 4 5 6 5 4 4 4 3 3 3 3 4 4 3 5 6 6 6 6 7 6 5 5 7 14 14 14 16 15 15 15 14
11 10 11 10 9 8 5 4 4 5 6 6 5 6 6 5 4 4 3 3 3 3 3 4 4 5 5 6 6 6 6 7 7 6 6 14 15 16 18 17 15 15 14
9 9 9 9 8 7 6 5 4 4 5 4 5 6 6 5 4 4 3 3 4 4 4 4 5 5 4 5 5 5 6 6 7 7 6 8 12 13 14 16 16 14 14
8 8 10 10 7 6 5 5 5 4 3 4 4 4 4 5 5 4 3 3 4 4 4 4 5 4 4 5 5 6 5 6 5 6 6 5 7 11 14 16 15 15 15
7 7 10 9 8 7 6 4 3 3 1 0 1 1 2 3 5 4 4 4 4 3 3 3 4 4 4 4 4 5 5 5 6 6 6 5 5 5 8 14 17 16 15
10 9 8 7 7 7 7 5 3 2 1 1 1 2 2 1 3 3 4 4 4 4 4 3 4 3 3 5 5 5 4 5 6 6 6 5 6 5 5 8 13 14 15
9 12 11 7 6 6 5 3 2 1 1 3 4 4 4 3 4 4 4 4 4 4 4 4 5 5 5 4 4 3 4 5 5 6 6 4 4 5 5 6 6 8 14
8 6 8 5 5 6 3 2 2 2 2 3 4 4 4 4 4 4 4 5 5 5 6 6 4 5 5 3 2 2 4 5 5 5 4 3 3 5 5 5 5 4 6
8 6 7 4 2 4 3 2 3 3 2 1 1 1 2 3 4 5 6 6 7 6 6 6 6 4 4 5 3 2 1 3 4 2 3 3 3 4 5 4 4 5 4
7 6 8 7 5 5 4 3 3 3 3 2 1 1 3 4 4 6 7 6 7 6 6 7 8 9 6 4 5 4 3 4 2 2 2 3 2 3 5 4 4 5 5
13 9 12 9 4 4 4 5 5 3 1 0 0 1 3 3 5 6 7 6 5 4 5 6 6 5 6 5 5 5 4 4 3 2 4 3 1 4 4 3 4 6 5
5 5 7 8 7 6 6 7 6 4 1 0 1 2 3 4 5 6 5 3 3 3 4 6 6 7 7 5 4 3 3 3 3 4 4 3 2 4 3 5 5 5 5
4 4 6 8 7 6 7 7 7 7 3 1 1 2 3 2 3 5 5 3 3 3 4 3 2 4 4 3 2 3 4 4 4 4 4 3 4 4 3 4 5 6 4
Wind_Direction
160 164 149 146 142 142 141 138 129 119 114 111 107 102 102 103 105 110 115 112 111 111 110 107 109 110 105 102 105 110 116 122 123 124 125 121 116 116 124 113 114 114 112
154 159 150 149 146 147 147 145 139 132 124 116 109 106 108 110 112 115 123 124 121 118 111 104 98 108 118 115 114 117 124 131 135 136 138 135 130 126 139 128 125 128 126
146 150 148 149 148 149 149 149 150 145 137 130 125 120 122 124 125 124 127 132 131 127 119 114 107 107 122 134 131 130 137 147 153 157 148 136 144 136 141 146 138 138 138
138 142 143 145 148 151 152 152 152 152 148 145 142 137 137 136 136 132 132 135 134 131 131 137 130 125 128 147 151 147 158 174 185 194 185 188 189 165 147 152 155 156 157
131 135 141 143 149 154 154 154 157 157 156 156 156 156 153 150 147 141 141 142 144 144 138 146 149 147 147 147 156 166 185 201 216 226 233 237 227 192 183 174 172 175 175
129 132 137 142 147 155 161 163 167 168 168 169 170 172 167 162 160 154 155 153 153 154 151 153 162 166 169 181 202 226 236 239 239 249 247 253 235 200 193 191 190 191 193
130 132 138 143 147 155 166 172 174 177 176 176 176 177 173 171 170 169 169 167 166 167 161 165 180 189 190 194 207 229 248 259 265 269 271 258 218 202 198 199 197 199 203
134 133 140 149 152 155 164 174 180 182 182 180 179 180 181 182 183 183 183 181 181 180 180 183 193 204 202 207 216 231 247 258 270 291 298 292 223 205 202 202 204 205 203
136 138 144 152 161 165 167 173 180 182 183 185 184 182 183 186 186 190 190 190 194 198 202 205 209 214 207 208 221 236 248 261 270 276 281 288 249 219 214 207 205 209 211
141 144 142 149 160 167 175 177 181 181 183 183 184 184 188 189 191 195 194 201 205 213 219 221 221 232 229 225 232 241 248 258 262 260 254 252 261 247 225 215 208 213 217
154 156 156 160 158 168 182 188 186 188 189 189 191 192 193 192 199 204 209 216 221 225 228 231 231 236 240 241 242 243 245 239 246 253 249 254 263 258 231 221 219 219 218
168 170 173 175 177 179 186 191 188 195 191 193 201 203 197 201 212 223 228 233 234 233 234 236 235 237 241 234 246 252 241 230 230 240 244 249 259 247 221 225 230 228 229
171 173 179 181 185 188 187 171 189 210 200 202 208 208 204 211 222 231 229 238 238 238 236 238 233 233 235 225 222 238 250 241 227 235 248 253 251 230 224 232 233 231 234
175 181 182 182 185 195 192 185 192 205 210 212 215 214 208 212 224 233 217 225 221 222 234 236 230 228 235 234 225 233 241 237 226 227 239 244 240 237 236 233 234 238 239
173 179 186 186 186 191 194 194 195 207 213 215 204 214 214 207 220 225 214 228 218 208 237 232 232 235 232 236 231 229 238 234 233 230 231 239 234 231 234 239 239 241 249
168 168 178 194 193 186 190 198 196 205 214 206 216 208 211 209 220 220 203 210 216 215 229 225 223 227 233 231 233 234 236 240 238 232 231 236 239 229 228 236 237 236 244
176 163 176 192 195 187 190 195 172 187 180 176 198 184 204 220 219 213 213 218 221 227 238 238 235 220 235 229 238 253 253 254 245 243 240 233 233 230 224 232 237 233 239
173 165 180 190 187 185 180 178 171 170 147 150 186 173 189 214 216 215 221 234 245 254 245 233 240 233 236 233 234 245 244 245 253 244 243 239 225 224 227 233 233 232 235
175 168 182 179 183 184 180 170 174 180 180 205 240 255 265 270 230 204 230 235 237 240 243 235 233 220 246 249 246 245 244 239 241 244 245 243 242 225 212 227 228 227 235
189 167 168 177 183 182 176 162 141 148 242 234 225 223 231 235 205 196 227 240 240 245 240 231 239 224 227 238 248 260 260 254 239 241 246 247 252 252 229 214 222 227 235
201 153 135 170 186 163 149 149 159 176 226 238 236 237 233 235 242 233 236 240 228 227 232 223 223 227 230 212 206 273 267 259 249 237 243 256 270 279 259 225 209 215 230
4 107 125 127 155 138 127 159 153 147 156 151 356 348 4 329 293 266 242 239 235 228 238 238 224 221 216 179 169 167 274 303 284 242 218 230 261 289 280 252 223 224 229
205 170 122 126 140 130 145 140 92 74 49 52 66 16 327 311 302 286 266 247 238 225 227 227 227 220 223 198 192 174 176 225 290 295 244 214 223 259 266 262 257 259 254
192 147 114 110 111 113 106 83 76 82 96 135 222 307 306 330 325 307 284 264 253 241 236 231 220 203 189 202 202 208 196 184 177 281 291 257 240 243 246 248 257 268 266
55 77 103 115 116 115 106 103 110 110 109 48 3 344 336 329 329 331 319 315 314 294 267 245 216 206 195 190 185 184 211 218 205 203 256 300 314 270 244 229 245 273 276
112 128 131 122 129 134 121 128 126 114 101 78 297 311 303 304 328 344 342 351 8 1 338 297 246 229 214 197 192 190 187 189 207 200 232 272 271 266 269 240 248 253 245